Content
SEND FEEDBACK

Daily
Averages
Monthly
Summary
United Kingdom

RADLETT, ENGLAND


Home > Europe > United Kingdom > England
Elevation: 240 feet     Latitude: 51 43N     Longitude: 000 19W

WEATHER
 
SELECT A DAY
Number of Records: 294,157;   Date Range: 7/1/96 - 10/29/14
 
SHARE

PRINT THIS DATA

[ ← Previous Day ]
WEATHER ALMANAC - JULY 20, 2014
[ Next Day → ]
[ °C ]   °F
Weather ElementAverageHighLow
Temperature68.1 °F77 °F (4:20 pm)62.6 °F (1:50 am)
Dewpoint61.7 °F62.6 °F (12:50 am)59 °F (3:20 pm)
Humidity81.1 %100 % (6:50 am)57 % (3:20 pm)
Barometer29.84 in29.95 in (10:20 pm)29.77 in (12:50 am)
Wind Speed7.5 mph13.8 mph (6:50 pm)
Weather ElementAverage
Visibility5.7 mi
Wind DirectionWSW (237.6 °)

Weather ElementTotal
Precipitation---
Cooling Degree Days4.8 (Base 65)
Growing Degree Days19.8 (Base 50)
Averaged from 45 records on July 20, 2014
WEATHER CONDITIONS BREAKOUT
WIND DIRECTION BREAKOUT
WEATHER BY HOUR - JULY 20, 2014
[ °C ]   °F
Local TimeTemperatureDewpointHumidityBarometerVisibilityWind DirectionWind SpeedGust SpeedPrecipitationEventsConditions
12:50 AM64.4 °F62.6 °F94 %29.77 inSW (220°)4.6 mphClear
1:20 AM64.4 °F60.8 °F88 %29.77 inWest (260°)4.6 mphClear
1:50 AM62.6 °F60.8 °F94 %29.77 inSW (230°)3.5 mphClear
2:20 AM62.6 °F60.8 °F94 %29.77 inCalmClear
2:50 AM62.6 °F60.8 °F94 %29.77 inSSW (210°)4.6 mphClear
4:20 AM62.6 °F60.8 °F94 %29.77 in4.3 miWest (270°)6.9 mph
4:50 AM62.6 °F60.8 °F94 %29.77 in5.0 miWest (280°)8.1 mph
5:20 AM62.6 °F60.8 °F94 %29.77 in3.7 miWest (280°)10.4 mphScattered Clouds
5:50 AM62.6 °F60.8 °F94 %29.77 in2.8 miWest (280°)10.4 mphMostly Cloudy
6:20 AM62.6 °F60.8 °F94 %29.77 inWNW (300°)9.2 mphHaze
6:50 AM62.6 °F62.6 °F100 %29.77 in3.1 miWNW (300°)10.4 mphHaze
7:20 AM64.4 °F62.6 °F94 %29.80 in2.8 miWNW (300°)10.4 mphHaze
7:50 AM66.2 °F62.6 °F88 %29.80 in4.3 miWNW (300°)8.1 mphScattered Clouds
8:20 AM68.0 °F62.6 °F83 %29.80 in6.2 miWNW (290°)9.2 mphMostly Cloudy
8:50 AM68.0 °F62.6 °F83 %29.80 in6.2 miNW (320°)9.2 mphMostly Cloudy
9:20 AM68.0 °F62.6 °F83 %29.83 in6.2 miNW (320°)6.9 mphMostly Cloudy
9:50 AM68.0 °F62.6 °F83 %29.83 in6.2 miWNW (290°)8.1 mphScattered Clouds
10:20 AM69.8 °F62.6 °F78 %29.83 in6.2 miWNW (300°)8.1 mphScattered Clouds
10:50 AM69.8 °F60.8 °F73 %29.83 in6.2 miNW (310°)6.9 mphMostly Cloudy
11:20 AM69.8 °F62.6 °F78 %29.83 in6.2 miWNW (290°)8.1 mphMostly Cloudy
11:50 AM69.8 °F60.8 °F73 %29.83 in6.2 miNW (310°)8.1 mphMostly Cloudy
12:20 PM71.6 °F62.6 °F73 %29.83 in6.2 miNNW (330°)9.2 mphMostly Cloudy
12:50 PM71.6 °F62.6 °F73 %29.83 in6.2 miNNW (330°)8.1 mphMostly Cloudy
1:20 PM73.4 °F62.6 °F69 %29.83 in6.2 miWNW (300°)10.4 mphMostly Cloudy
1:50 PM73.4 °F60.8 °F65 %29.83 in6.2 miWNW (300°)9.2 mphMostly Cloudy
2:20 PM73.4 °F60.8 °F65 %29.83 in6.2 miNW (310°)11.5 mphMostly Cloudy
2:50 PM75.2 °F60.8 °F61 %29.83 in6.2 miNW (310°)9.2 mphMostly Cloudy
3:20 PM75.2 °F59.0 °F57 %29.83 in6.2 miNW (310°)9.2 mphMostly Cloudy
3:50 PM75.2 °F60.8 °F61 %29.83 in6.2 miNW (320°)10.4 mphMostly Cloudy
4:20 PM77.0 °F60.8 °F57 %29.86 in6.2 miWNW (290°)8.1 mphMostly Cloudy
4:50 PM75.2 °F60.8 °F61 %29.86 in6.2 miNW (310°)8.1 mphScattered Clouds
5:20 PM75.2 °F59.0 °F57 %29.86 in6.2 miNW (320°)8.1 mphMostly Cloudy
5:50 PM73.4 °F59.0 °F61 %29.86 in6.2 miNW (310°)12.7 mphMostly Cloudy
6:20 PM73.4 °F62.6 °F69 %29.86 in6.2 miNorth (350°)9.2 mphMostly Cloudy
6:50 PM68.0 °F62.6 °F83 %29.89 in5.6 miNorth (10°)13.8 mphThunderstormThunderstorm
7:20 PM66.2 °F62.6 °F88 %29.89 in6.2 miNNE (20°)4.6 mphThunderstorm
7:50 PM66.2 °F62.6 °F88 %29.89 in6.2 miVariable2.3 mphThunderstormMostly Cloudy
8:20 PM66.2 °F62.6 °F88 %29.89 in6.2 miVariable3.5 mphScattered Clouds
8:50 PM66.2 °F62.6 °F88 %29.92 in6.2 miVariable3.5 mphPartly Cloudy
9:20 PM66.2 °F62.6 °F88 %29.92 inVariable2.3 mphClear
9:50 PM66.2 °F62.6 °F88 %29.92 inVariable2.3 mphClear
10:20 PM66.2 °F62.6 °F88 %29.95 inVariable3.5 mphClear
10:50 PM66.2 °F62.6 °F88 %29.95 inWNW (300°)5.8 mphClear
11:20 PM64.4 °F62.6 °F94 %29.95 in6.2 miWNW (300°)8.1 mphPartly Cloudy
11:50 PM66.2 °F62.6 °F88 %29.95 in6.2 miNW (310°)9.2 mphPartly Cloudy
Hourly data recorded from EGGW, located miles away from Radlett, England







STORIES FROM OUR PARTNERS